Other Public Products
Issued by NWS Grand Forks, ND

Home | Current Version | Previous Version | Graphics & Text | Print | Product List | Glossary On
Versions: 1 2 3 4 5 6 7 8 9 10 11 12 13 14 15 16 17 18 19 20 21 22 23 24 25 26 27 28 29 30 31 32 33 34 35 36 37 38 39 40 41 42 43 44 45 46 47 48 49 50
000
FPUS83 KFGF 050910
OPUFGF
PRAIRIE TO PINES WEATHER ROUNDUP
NATIONAL WEATHER SERVICE EASTERN NORTH DAKOTA/GRAND FORKS ND
300 AM CST THU MAR 05 2015

 **SATELLITE DATA USED TO AUGMENT SKY COVER AT AUTOMATED STATIONS**
 *****  WEATHER ACROSS EASTERN NORTH DAKOTA  *****

CITY           SKY/WX    TMP DP  RH WIND       PRES   REMARKS
GRAND FORKS    CLEAR    -13 -18  78 S8        30.39F WCI -30
GRAND FORKS AF FAIR     -11 -19  68 SW6       30.37F WCI -25
GRAND CITY NWS   N/A    -11 N/A N/A SW5         N/A  WCI -23
BUXTON         NOT AVBL
DEVILS LAKE    MOCLDY    -9 -18  64 SW7       30.29F WCI -24
FARGO          CLEAR     -9 -16  71 SW6       30.43S WCI -22
WAHPETON ARPT  SUNNY     -9 -17  70 W5        30.44F WCI -21
$$

 *****  WEATHER ACROSS CENTRAL AND WESTERN NORTH DAKOTA  *****

CITY           SKY/WX    TMP DP  RH WIND       PRES   REMARKS
JAMESTOWN      PTCLDY    -7 -15  68 SW3       30.33F
BISMARCK       PTCLDY    -7 -12  79 E5        30.30F WCI -18
MINOT          MOCLDY    -2 -12  62 S8        30.20F WCI -17
MINOT AFB      MOCLDY    -6 -13  74 S7        30.20F WCI -21
GARRISON         N/A    -10 -15  78 S3        30.21F
WILLISTON      PTCLDY     1  -8  66 S7        30.15F WCI -12
DICKINSON      CLEAR      3  -5  69 S13       30.12F WCI -14
HETTINGER      CLEAR      2  -7  66 S7        30.17F WCI -11
$$

 *****  OTHER OBSERVATIONS NORTHEAST NORTH DAKOTA  *****

CITY           SKY/WX    TMP DP  RH WIND       PRES   REMARKS
WALHALLA         N/A     -8 -17  65 W6        30.33F WCI -21
LANGDON        NOT AVBL
CAVALIER       FAIR      -8 -17  65 CALM      30.35S
GRAFTON        NOT AVBL
CANDO          FAIR     -17 -20  83 S5        30.28F WCI -29
FORT TOTTEN      N/A    -10 -18  69 S3        29.95
ROLLA          FAIR     -13 -18  77 SW12      30.21F WCI -33
RUGBY          FAIR     -11 -18  70 S7        30.26F WCI -26
 ***** THE ABOVE OBSERVATIONS ARE NON NWS ARE NOT QUALITY
        CONTROLLED AND MAY MIS-REPORT RAIN FOR SNOW...
$$

 *****  OTHER OBSERVATIONS SOUTHEAST NORTH DAKOTA *****

CITY           SKY/WX    TMP DP  RH WIND       PRES   REMARKS
COOPERSTOWN    NOT AVBL
VALLEY CITY      N/A    -13 -17  84 SW6       30.35S WCI -27
OAKES            N/A     -9 -15  77 SW7       30.39S WCI -24
GWINNER        SUNNY     -8 -15  71 SW7       30.40F WCI -22
SHEYENNE NWR     N/A    -14 -21  70 SW2       29.95S
BUFFALO        NOT AVBL
WYNDMERE       NOT AVBL
 ***** THE ABOVE OBSERVATIONS ARE NON NWS ARE NOT QUALITY
       CONTROLLED AND MAY MIS-REPORT RAIN FOR SNOW...
$$

  *****  WEATHER ACROSS NORTHERN MINNESOTA  *****

CITY           SKY/WX    TMP DP  RH WIND       PRES   REMARKS
FLAG ISLAND    CLEAR    -17 -22  76 SE5       30.28F WCI -29
WARROAD        CLEAR    -15 -20  76 SW5       30.31S WCI -27
ROSEAU         PTCLDY   -13 -18  77 SW8       30.32S WCI -30
HALLOCK        NOT AVBL
THF RVR FALLS  CLEAR    -13 -26  53 S6        30.35S WCI -27
HALSTAD        NOT AVBL
FOSSTON        CLEAR    -20 -26  76 S6        30.36S WCI -36
BAUDETTE       CLEAR    -18 -22  82 SW6       30.30F WCI -33
WASKISH        CLEAR     -9 -15  77 SW6       30.33S WCI -23
CROOKSTON      CLEAR    -11 -17  77 SW7       30.41S WCI -26
$$
  *****  WEATHER ACROSS CENTRAL AND WEST MINNESOTA  *****

CITY           SKY/WX    TMP DP  RH WIND       PRES   REMARKS
BEMIDJI        CLEAR    -16 -20  79 SW3       30.33F
PARK RAPIDS    CLEAR    -15 -21  74 W3        30.34F
WADENA         CLEAR    -15 -18  84 W7        30.37S WCI -31
DETROIT LAKES  CLEAR     -9 -13  84 SW5       30.37F WCI -21
MOORHEAD       CLEAR     -8 -11  84 S5        30.43S WCI -19
FERGUS FALLS   CLEAR    -11 -17  77 SW3       30.46F
ELBOW LAKE     FAIR     -12 -16  82 SW3       30.41F
MORRIS MN      CLEAR    -13 -18  77 W5        30.41F WCI -25
STAPLES        PTCLDY   -20 -24  83 CALM      30.37F
WHEATON        CLEAR    -11 -17  77 SW5       30.45F WCI -23
$$
  *****  WEATHER ELSEWHERE ACROSS MINNESOTA  *****

CITY           SKY/WX    TMP DP  RH WIND       PRES   REMARKS
DULUTH         CLEAR    -10 -17  71 W9        30.31F WCI -27
INTRNTL FALLS  CLEAR    -22 -27  77 SW6       30.31F WCI -38
ELY            CLEAR    -20 -26  76 CALM      30.29F
CLOQUET        CLEAR    -11 -18  70 W7        30.33F WCI -26
BRAINERD       CLEAR    -22 -28  74 S3        30.39S
HIBBING        CLEAR    -25 -31  73 CALM      30.32F
ALEXANDRIA     PTCLDY   -14 -18  82 W7        30.38F WCI -30
SAINT CLOUD    CLEAR    -10 -15  78 W6        30.42S WCI -23
MINNEAPOLIS    CLEAR     -5 -12  72 NW7       30.45S WCI -19
$$

  *****  WEATHER ACROSS SOUTH DAKOTA  *****

CITY           SKY/WX    TMP DP  RH WIND       PRES   REMARKS
SIOUX FALLS    CLEAR     -8 -13  78 W3        30.43F
BROOKINGS      NOT AVBL
WATERTOWN      PTCLDY   -15 -19  82 CALM      30.36F
HURON          MOCLDY    -8 -14  74 SW5       30.44F WCI -19
SISSETON         N/A     -8 -14  74 W5        30.42F WCI -19
ABERDEEN       CLEAR    -16 -21  78 SW6       30.42F WCI -31
MITCHELL       CLEAR     -5  -9  83 CALM      30.46F
PIERRE         CLEAR     -5 -10  79 SE9       30.36F WCI -22
MOBRIDGE       CLEAR     -1  -8  72 SE10      30.30F WCI -17
RAPID CITY     PTCLDY     4  -1  80 S5        30.19F WCI  -5
$$

  *****  SOME WEATHER IN NEARBY STATES *****

CITY           SKY/WX    TMP DP  RH WIND       PRES   REMARKS
GLASGOW MT     CLOUDY    13   0  56 E12       30.02F WCI  -1
GREAT FALLS MT PTCLDY    27  14  58 SW13      30.05R WCI  16
CHEYENNE WY    CLEAR     12  -1  56 W12       30.12F WCI  -2
SCOTTSBLUFF NE CLEAR      7   1  76 N3        30.22F
OMAHA NE       CLEAR      6  -4  63 CALM      30.51R
DES MOINES IA  PTCLDY     6  -4  63 N8        30.48R WCI  -7
DAVENPORT IA   PTCLDY     2  -6  69 NW9       30.42F WCI -13
CHICAGO IL     CLOUDY     8  -6  52 N8        30.34F WCI  -4
EAU CLAIRE WI  CLEAR     -8 -17  64 SW3       30.40F
LA CROSSE WI   CLEAR     -1  -9  68 CALM      30.43F
$$

  *****  SOME NATIONAL WEATHER *****

CITY           SKY/WX    TMP DP  RH WIND       PRES   REMARKS
LA GUARDIA NY  LGT SNOW  34  30  86 NW10      29.95R FOG
RALEIGH NC     LGT RAIN  64  58  80 SW12      29.86S
ATLANTA GA     LGT RAIN  67  64  90 S16G22    29.87F FOG
NEW ORLEANS LA PTCLDY    71  68  90 S12       29.90F
OKLAHOMA CITY  CLEAR     12   8  84 N7        30.45S WCI   1
ALBUQUERQUE NM CLEAR     27  19  72 N6        30.31R WCI  20
SALT LAKE CITY CLEAR     29  17  61 SE8       30.36S WCI  21
LOS ANGELES CA PTCLDY    56  41  57 NE7       30.17R
BOISE ID       CLEAR     28  16  60 SE6       30.33S WCI  22
SEATTLE WA     MOCLDY    41  26  55 SE3       30.30S
$$

*** WEATHER ACROSS MANITOBA...SASKATCHEWAN AND ONTARIO ***
                ***ONTARIO***

CITY           SKY/WX    TMP DP  RH WIND       PRES   REMARKS
GERALDTON      CLEAR    -13 -20  70 SW7       30.18S WCI -29
THUNDER BAY    CLEAR    -24 -29  76 NW5       30.33S WCI -38
SIOUX LOOKOUT  CLEAR    -18 -24  76 S3        30.22S
TORONTO        MOCLDY     5  -6  61 NW17      30.23S WCI -14
BIG TROUT LK   CLEAR    -13 -18  77 W10       30.03F WCI -32
PICKLE LAKE    NOT AVBL
DRYDEN         CLEAR    -13 -18  77 SW10      30.23S WCI -32
KENORA         CLEAR    -15 -20  76 SW6       30.24F WCI -29
$$
                *** MANITOBA***

CITY           SKY/WX    TMP DP  RH WIND       PRES   REMARKS
BRANDON        CLEAR    -18 -26  69 W9        30.24F WCI -38
DAUPHIN        CLEAR     -8 -17  65 SW14      30.20F WCI -28
ISLAND LAKE    CLEAR    -15 -22  70 SW5       30.09F WCI -27
PILOT MOUND      N/A    -22 -27  76 S7          N/A  WCI -39
THE PAS        CLEAR    -13 -20  70 S6        30.07F WCI -27
THOMPSON       NOT AVBL
WINNIPEG       CLEAR    -11 -20  64 SW9       30.31F WCI -29
LYNN LAKE      PTCLDY   -13 -20  70 SW9       29.87F WCI -31
CHURCHILL      CLEAR    -24 -31  69 W6        29.95S WCI -40
GILLAM         CLEAR    -17 -24  70 SW7       29.98F WCI -33
$$
                ***SASKATCHEWAN***

CITY           SKY/WX    TMP DP  RH WIND       PRES   REMARKS
ESTEVAN        PTCLDY   -11 -18  70 S6        30.12F WCI -25
KINDERSLEY     PTCLDY     1  -4  78 S8        29.96S WCI -12
LLOYDMINSTER   CLEAR      9   3  78 SW13      29.87F WCI  -7
PRINCE ALBERT  CLOUDY   -11 -17  77 SW5       30.01F WCI -23
REGINA         PTCLDY   -13 -20  70 SE15      30.06F WCI -36


USA.gov is the U.S. government's official web portal to all federal, state and local government web resources and services.